VPCOH LFMN-LYTV

Flight info

Callsign VPCOH
Flight time N/A
Altitude 41000
Route SODRI A3 MIRSA DCT ROSKI/N0456F400 DCT NAVAG DCT RIVAM/N0460F390 DCT KOFER
Aircraft B738/M-SDE2E3FGHIRWXY/LB1

Departure

Time 2026-05-01 12:11
Airport Nice-Côte d'Azur Airport (LFMN)

Arrival

Time N/A
Airport Tivat Airport (LYTV)
Time Latitude Longitude Altitude Speed Heading
2026-05-01 11:44 43.66134 7.20943 18 ft 0 kts 260°
2026-05-01 11:57 43.66135 7.20951 18 ft 1 kts 260°
2026-05-01 11:57 43.66137 7.20964 18 ft 1 kts 260°
2026-05-01 11:58 43.66138 7.20978 17 ft 1 kts 260°
2026-05-01 11:58 43.66140 7.20991 18 ft 1 kts 260°
2026-05-01 11:58 43.66143 7.21018 19 ft 1 kts 244°
2026-05-01 11:59 43.66148 7.21027 21 ft 1 kts 195°
2026-05-01 11:59 43.66156 7.21028 21 ft 1 kts 167°
2026-05-01 11:59 43.66162 7.21026 20 ft 0 kts 170°
2026-05-01 12:03 43.66135 7.21032 20 ft 7 kts 171°
2026-05-01 12:03 43.66079 7.21044 18 ft 9 kts 171°
2026-05-01 12:03 43.66021 7.21056 18 ft 8 kts 172°
2026-05-01 12:03 43.65968 7.21081 20 ft 8 kts 147°
2026-05-01 12:04 43.65916 7.21089 18 ft 8 kts 206°
2026-05-01 12:04 43.65874 7.21037 19 ft 9 kts 225°
2026-05-01 12:04 43.65827 7.20972 18 ft 10 kts 225°
2026-05-01 12:04 43.65777 7.20903 20 ft 10 kts 225°
2026-05-01 12:05 43.65729 7.20836 19 ft 10 kts 225°
2026-05-01 12:05 43.65615 7.20681 15 ft 13 kts 225°
2026-05-01 12:05 43.65550 7.20592 15 ft 13 kts 225°
2026-05-01 12:06 43.65486 7.20503 14 ft 14 kts 225°
2026-05-01 12:06 43.65417 7.20408 15 ft 14 kts 225°
2026-05-01 12:06 43.65353 7.20320 17 ft 12 kts 223°
2026-05-01 12:06 43.65277 7.20301 18 ft 12 kts 151°
2026-05-01 12:07 43.65221 7.20376 18 ft 11 kts 136°
2026-05-01 12:07 43.65168 7.20446 20 ft 10 kts 135°
2026-05-01 12:07 43.65110 7.20504 20 ft 10 kts 157°
2026-05-01 12:07 43.65042 7.20507 20 ft 10 kts 198°
2026-05-01 12:08 43.64986 7.20455 22 ft 10 kts 223°
2026-05-01 12:08 43.64939 7.20391 25 ft 9 kts 224°
2026-05-01 12:08 43.64889 7.20323 21 ft 11 kts 225°
2026-05-01 12:08 43.64855 7.20278 21 ft 6 kts 216°
2026-05-01 12:09 43.64813 7.20267 21 ft 6 kts 165°
2026-05-01 12:09 43.64780 7.20304 22 ft 6 kts 126°
2026-05-01 12:09 43.64756 7.20353 26 ft 6 kts 117°
2026-05-01 12:09 43.64773 7.20391 23 ft 1 kts 41°
2026-05-01 12:10 43.64777 7.20396 23 ft 0 kts 41°
2026-05-01 12:10 43.65416 7.21272 27 ft 139 kts 46°
2026-05-01 12:10 43.66246 7.22320 363 ft 171 kts 44°
2026-05-01 12:11 43.67241 7.25062 2110 ft 184 kts 101°
2026-05-01 12:11 43.66550 7.26602 2705 ft 202 kts 141°
2026-05-01 12:11 43.65345 7.27707 3421 ft 211 kts 141°
2026-05-01 12:12 43.64160 7.28962 4277 ft 216 kts 137°
2026-05-01 12:12 43.62991 7.30329 5135 ft 223 kts 135°
2026-05-01 12:12 43.61830 7.31761 5960 ft 229 kts 134°
2026-05-01 12:12 43.60638 7.33266 6792 ft 235 kts 134°
2026-05-01 12:13 43.59285 7.34564 7673 ft 239 kts 156°
2026-05-01 12:13 43.57703 7.35343 8511 ft 245 kts 158°
2026-05-01 12:13 43.56087 7.36149 9417 ft 246 kts 158°
2026-05-01 12:13 43.54478 7.36958 10052 ft 248 kts 158°
2026-05-01 12:14 43.52839 7.37785 10517 ft 254 kts 157°
2026-05-01 12:14 43.51171 7.38630 11289 ft 261 kts 157°
2026-05-01 12:14 43.49406 7.39525 11608 ft 287 kts 157°
2026-05-01 12:14 43.47429 7.40530 11815 ft 317 kts 157°
2026-05-01 12:15 43.45264 7.41628 12018 ft 345 kts 158°
2026-05-01 12:15 43.42955 7.42795 12541 ft 359 kts 158°
2026-05-01 12:15 43.40580 7.43991 13313 ft 365 kts 158°
2026-05-01 12:15 43.38185 7.45197 14259 ft 367 kts 158°
2026-05-01 12:16 43.35773 7.46411 15067 ft 371 kts 157°
2026-05-01 12:16 43.33367 7.47622 15901 ft 374 kts 157°
2026-05-01 12:16 43.30879 7.48875 16750 ft 378 kts 157°
2026-05-01 12:16 43.28430 7.50109 17557 ft 382 kts 156°
2026-05-01 12:17 43.26137 7.51911 18320 ft 380 kts 135°
2026-05-01 12:17 43.24524 7.54737 19079 ft 376 kts 115°
2026-05-01 12:17 43.23638 7.58092 19738 ft 377 kts 102°
2026-05-01 12:17 43.22999 7.61617 20337 ft 383 kts 101°
2026-05-01 12:18 43.22369 7.65195 20999 ft 387 kts 101°
2026-05-01 12:18 43.21730 7.68758 21620 ft 392 kts 101°
2026-05-01 12:18 43.21057 7.72413 22206 ft 398 kts 102°
2026-05-01 12:18 43.20361 7.76116 22827 ft 403 kts 102°
2026-05-01 12:19 43.19647 7.79866 23376 ft 409 kts 102°
2026-05-01 12:19 43.18921 7.83661 23949 ft 413 kts 102°
2026-05-01 12:19 43.18159 7.87487 24431 ft 418 kts 103°
2026-05-01 12:19 43.17372 7.91294 24923 ft 421 kts 103°
2026-05-01 12:20 43.16562 7.95173 25412 ft 425 kts 103°
2026-05-01 12:20 43.15742 7.99091 25890 ft 429 kts 103°
2026-05-01 12:20 43.14918 8.03038 26328 ft 433 kts 102°
2026-05-01 12:20 43.14087 8.07028 26754 ft 437 kts 103°
2026-05-01 12:21 43.13246 8.11061 27181 ft 441 kts 103°
2026-05-01 12:21 43.12399 8.15123 27605 ft 445 kts 103°
2026-05-01 12:21 43.11546 8.19211 28033 ft 448 kts 103°
2026-05-01 12:21 43.10694 8.23283 28427 ft 452 kts 103°
2026-05-01 12:22 43.09823 8.27440 28816 ft 456 kts 103°
2026-05-01 12:22 43.09240 8.30216 29069 ft 458 kts 103°
2026-05-01 12:22 43.08052 8.35863 29571 ft 463 kts 103°
2026-05-01 12:22 43.07459 8.38677 29794 ft 466 kts 103°
2026-05-01 12:23 43.06554 8.42960 30161 ft 469 kts 103°
2026-05-01 12:23 43.05644 8.47254 30481 ft 472 kts 103°
2026-05-01 12:23 43.04727 8.51573 30807 ft 474 kts 103°
2026-05-01 12:23 43.03500 8.57336 31244 ft 477 kts 103°
2026-05-01 12:24 43.02873 8.60281 31485 ft 477 kts 103°
2026-05-01 12:24 43.01954 8.64584 31915 ft 476 kts 103°
2026-05-01 12:24 43.01027 8.68912 32394 ft 473 kts 103°
2026-05-01 12:24 43.00103 8.73229 32835 ft 472 kts 103°
2026-05-01 12:25 42.99177 8.77546 33226 ft 472 kts 103°
2026-05-01 12:25 42.97332 8.86111 34031 ft 471 kts 103°
2026-05-01 12:25 42.96406 8.90393 34426 ft 470 kts 103°
2026-05-01 12:26 42.95477 8.94683 34736 ft 470 kts 103°
2026-05-01 12:26 42.93609 9.03275 35248 ft 473 kts 103°
2026-05-01 12:26 42.92670 9.07585 35561 ft 473 kts 103°
2026-05-01 12:27 42.91743 9.11837 35873 ft 473 kts 103°
2026-05-01 12:27 42.89856 9.20469 36423 ft 474 kts 102°
2026-05-01 12:28 42.88478 9.29243 37007 ft 471 kts 96°
2026-05-01 12:28 42.87924 9.33648 37305 ft 471 kts 95°
2026-05-01 12:28 42.87205 9.42435 37830 ft 467 kts 86°
2026-05-01 12:29 42.87162 9.46860 38178 ft 465 kts 85°
2026-05-01 12:29 42.87133 9.51272 38495 ft 465 kts 86°
2026-05-01 12:29 42.86938 9.60106 38996 ft 467 kts 87°
2026-05-01 12:30 42.86625 9.68910 39418 ft 467 kts 88°
2026-05-01 12:30 42.86470 9.73338 39599 ft 468 kts 88°
2026-05-01 12:30 42.86317 9.77782 39801 ft 467 kts 88°
2026-05-01 12:31 42.86164 9.82209 40004 ft 468 kts 88°
2026-05-01 12:31 42.86009 9.86635 40186 ft 468 kts 88°
2026-05-01 12:31 42.85852 9.91068 40361 ft 468 kts 88°
2026-05-01 12:31 42.85694 9.95515 40546 ft 469 kts 88°
2026-05-01 12:32 42.85533 9.99958 40736 ft 469 kts 88°
2026-05-01 12:32 42.85209 10.08782 41082 ft 469 kts 88°
2026-05-01 12:32 42.85043 10.13237 41243 ft 469 kts 88°
2026-05-01 12:33 42.84706 10.22175 41284 ft 473 kts 88°
2026-05-01 12:33 42.84361 10.31055 41282 ft 469 kts 88°
2026-05-01 12:34 42.84011 10.39916 41283 ft 467 kts 88°
2026-05-01 12:34 42.83658 10.48694 41277 ft 465 kts 88°
2026-05-01 12:35 42.83298 10.57498 41275 ft 463 kts 88°
2026-05-01 12:35 42.82933 10.66268 41272 ft 463 kts 88°
2026-05-01 12:36 42.82563 10.75002 41271 ft 464 kts 88°
2026-05-01 12:36 42.82181 10.83826 41275 ft 466 kts 88°
2026-05-01 12:37 42.81793 10.92656 41268 ft 467 kts 88°
2026-05-01 12:37 42.81400 11.01471 41270 ft 469 kts 88°
2026-05-01 12:38 42.80994 11.10364 41276 ft 470 kts 89°
2026-05-01 12:38 42.80579 11.19277 41269 ft 472 kts 89°
2026-05-01 12:39 42.80160 11.28145 41273 ft 472 kts 89°
2026-05-01 12:39 42.79731 11.37088 41271 ft 473 kts 89°
2026-05-01 12:40 42.79296 11.46012 41261 ft 473 kts 89°
2026-05-01 12:40 42.78852 11.54960 41261 ft 472 kts 89°
2026-05-01 12:41 42.78407 11.63810 41273 ft 471 kts 89°
2026-05-01 12:41 42.77953 11.72716 41264 ft 471 kts 89°
2026-05-01 12:42 42.77493 11.81596 41262 ft 470 kts 89°
2026-05-01 12:42 42.77025 11.90482 41257 ft 469 kts 89°
2026-05-01 12:43 42.76555 11.99291 41266 ft 469 kts 89°
2026-05-01 12:43 42.76074 12.08160 41260 ft 470 kts 89°
2026-05-01 12:44 42.75586 12.17045 41260 ft 470 kts 89°
2026-05-01 12:45 42.74594 12.34746 41257 ft 470 kts 90°
2026-05-01 12:45 42.74084 12.43644 41250 ft 471 kts 90°
2026-05-01 12:46 42.73567 12.52544 41241 ft 472 kts 90°
2026-05-01 12:46 42.73041 12.61463 41252 ft 472 kts 90°
2026-05-01 12:47 42.72512 12.70336 41250 ft 473 kts 90°
2026-05-01 12:47 42.71972 12.79278 41252 ft 473 kts 90°
2026-05-01 12:48 42.71429 12.88149 41246 ft 473 kts 90°
2026-05-01 12:48 42.70876 12.97053 41248 ft 473 kts 90°
2026-05-01 12:49 42.70316 13.05976 41261 ft 472 kts 91°
2026-05-01 12:49 42.69701 13.14888 41269 ft 473 kts 93°
2026-05-01 12:50 42.68708 13.23679 41263 ft 473 kts 95°
2026-05-01 12:50 42.67607 13.32520 41287 ft 472 kts 95°
2026-05-01 12:51 42.66543 13.41334 41280 ft 471 kts 95°
2026-05-01 12:52 42.65001 13.54463 41312 ft 471 kts 95°
2026-05-01 12:52 42.63443 13.67653 41313 ft 470 kts 95°
2026-05-01 12:53 42.61874 13.80771 41311 ft 470 kts 96°
2026-05-01 12:54 42.60814 13.89552 41319 ft 471 kts 96°
2026-05-01 12:54 42.59207 14.02771 41318 ft 472 kts 96°
2026-05-01 12:55 42.57588 14.15958 41311 ft 474 kts 96°
2026-05-01 12:56 42.56503 14.24730 41320 ft 474 kts 96°
2026-05-01 12:56 42.55405 14.33559 41320 ft 474 kts 96°
2026-05-01 12:57 42.54298 14.42409 41312 ft 475 kts 96°
2026-05-01 12:57 42.52625 14.55676 41302 ft 476 kts 97°
2026-05-01 12:58 42.51506 14.64472 41297 ft 476 kts 97°
2026-05-01 12:59 42.49802 14.77766 41289 ft 476 kts 97°